Regional Weather Roundup
Issued by NWS

Home | Current Version | Previous Version | Graphics & Text | Print | Product List | Glossary On
Versions: 1 2 3 4 5 6 7 8 9 10 11 12 13 14 15 16 17 18 19 20 21 22 23 24 25 26 27 28 29 30 31 32 33 34 35 36 37 38 39 40 41 42 43 44 45 46 47 48 49 50
679
ASUS43 KOAX 110910
RWRNE

WEATHER ROUNDUP FOR NEBRASKA
NATIONAL WEATHER SERVICE OMAHA NE
300 AM CST THU FEB 11 2016

NOTES: SATELLITE DATA IS BEING USED TO AUGMENT CLOUD COVER ABOVE
       12000 FEET.
       "FAIR" INDICATES FEW OR NO CLOUDS BELOW 12,000 FEET WITH NO
       SIGNIFICANT WEATHER AND/OR OBSTRUCTIONS TO VISIBILITY.

  * THESE STATIONS DO NOT REPORT WEATHER SUCH AS RAIN...SNOW OR FOG.

NEZ001>004-019>022-054>056-111000-
NEBRASKA PANHANDLE

CITY           SKY/WX    TMP DP  RH WIND       PRES   REMARKS
SCOTTSBLUFF    CLOUDY    30  24  78 N8        30.11F WCI  22
ALLIANCE       CLEAR     24  22  91 W6        30.09F WCI  17
CHADRON        CLEAR     25  22  88 CALM      30.09F
KIMBALL        CLOUDY    32  25  74 W7        30.14F WCI  26
SIDNEY         CLOUDY    32  24  72 NW9       30.13F WCI  24
$$

NEZ057>060-069>072-079>082-111000-
SOUTHWEST NEBRASKA

CITY           SKY/WX    TMP DP  RH WIND       PRES   REMARKS
NORTH PLATTE   CLOUDY    24  22  91 NW3       30.16S
IMPERIAL       CLOUDY    26  23  88 CALM      30.16R
LEXINGTON      CLOUDY    28  25  87 CALM      30.18S
MCCOOK         CLOUDY    30  26  85 CALM      30.16S
OGALLALA       CLOUDY    26  23  87 CALM      30.14F
$$

NEZ005>010-023>029-035>040-094-111000-
NORTH CENTRAL NEBRASKA

CITY           SKY/WX    TMP DP  RH WIND       PRES   REMARKS
VALENTINE      CLOUDY    27  26  96 NW3       30.16F
AINSWORTH      CLOUDY    28  24  85 NW7       30.17R WCI  20
BROKEN BOW       N/A     31  28  89 MISG      30.15F
O`NEILL        CLOUDY    26  24  93 NE3       30.18S
ORD            CLOUDY    29  25  85 CALM      30.17S
THEDFORD       CLOUDY    31  30  96 NW3       30.16S
$$

NEZ041-046>049-061>064-073>077-083>087-111000-
SOUTH CENTRAL NEBRASKA

CITY           SKY/WX    TMP DP  RH WIND       PRES   REMARKS
GRAND ISLAND   CLOUDY    25  23  92 NE6       30.20R WCI  18
AURORA         CLOUDY    25  23  93 N6        30.20R WCI  18
HASTINGS       CLOUDY    28  23  81 N14       30.19R WCI  17
HEBRON         CLOUDY    24  21  91 NE8       30.21R WCI  14
HOLDREGE       CLOUDY    28  26  91 N5        30.19R WCI  22
KEARNEY *      CLOUDY    28  25  86 N13       30.18S WCI  18
YORK           CLOUDY    23  21  93 NE8       30.21R WCI  14
$$

NEZ011>018-030>034-042>045-111000-
NORTHEAST NEBRASKA

CITY           SKY/WX    TMP DP  RH WIND       PRES   REMARKS
NORFOLK        CLOUDY    20  16  84 NE5       30.20F WCI  13
ALBION         CLOUDY    24  20  86 N6        30.20R WCI  16
BLAIR          CLOUDY    17  13  84 NE7       30.24R WCI   8
COLUMBUS *     CLOUDY    21  10  63 NE7       30.22R WCI  13
FREMONT        CLOUDY    19  13  79 NE6       30.24S WCI  10
TEKAMAH        CLOUDY    17  11  77 NE9       30.26R WCI   6
WAYNE          CLOUDY    17  13  84 NE5       30.23S WCI  10
$$

NEZ050>053-065>068-078-088>093-111000-
SOUTHEAST NEBRASKA

CITY           SKY/WX    TMP DP  RH WIND       PRES   REMARKS
LINCOLN        CLOUDY    18  14  84 N10       30.25R WCI   6
OMAHA EPPLEY   CLOUDY    17  11  77 N10       30.27R WCI   5
BEATRICE       CLOUDY    24  22  93 N9        30.20R WCI  14
FALLS CITY     PTCLDY    22  19  89 N7        30.20R WCI  13
NEBRASKA CITY  CLOUDY    22  20  91 N13       30.21R WCI  10
PLATTSMOUTH    CLOUDY    19  15  86 N9        30.23R WCI   7
$$

NEZ044-045-051>053-067-111000-
OMAHA AREA

CITY           SKY/WX    TMP DP  RH WIND       PRES   REMARKS
OMAHA EPPLEY   CLOUDY    17  11  77 N10       30.27R WCI   5
BLAIR          CLOUDY    17  13  84 NE7       30.24R WCI   8
FREMONT        CLOUDY    19  13  79 NE6       30.24S WCI  10
MILLARD        CLOUDY    19  14  80 CALM      30.26R
OFFUTT AFB     CLOUDY    18  14  83 N9        30.25R WCI   7
PLATTSMOUTH    CLOUDY    19  15  86 N9        30.23R WCI   7
WAHOO          PTSUNNY   15  12  89 N6        30.24R WCI   6
$$




USA.gov is the U.S. government's official web portal to all federal, state and local government web resources and services.